Find Starlink 4084

NORAD ID: 52657 Int'l Des: 2022-053 Owner: SPXS Country: US Constellation: starlink operational
LEOCIRCULAR

Live Position

Loading 3D Globe...

About Starlink 4084

Description loading...

Upcoming Passes

Passes for default location (London). Set your location on the main map for personalized predictions.

Altitude History

Loading altitude history...

Two-Line Element Set

1 52657U 22053B 26121.72107867 .00000451 00000-0 46424-4 0 9991
2 52657 53.2175 276.3724 0001238 89.1779 270.9355 15.08837330219412
Epoch: May 1, 2026 • Age: 13 hours

Current Status

Altitude 545.0 km
Velocity 7.60 km/s
Sub-Earth Point 51.05°N, 69.57°E
Launch Date May 18, 2022
Age 3.9 years
Type internet

Technical Details

Classification Payload
Mass 297.00 kg
Dry Mass 275.00 kg
Total Mass 297.00 kg
Length 0.20 m
Diameter 2.80 m
Span 9.00 m
Shape Box + pan
Manufacturer SPXS
Bus Type Starlink
Phase Status In Orbit
Owner/State SPXS/US

Most Searched